Location: Bettgenhausen
(50.6463°N, 7.5681°E)
Time: 08:20:09
(UTC+00:00)

STARLINK-1052 - Pass Details

Date: 27 February 2020
Orbit: 548 x 551 km, 53.0° (Epoch: 01 April)

Event Time Altitude Azimuth Distance (km) Brightness Sun altitude
Rises 19:40:52 0° 275° (W) 2,719 8.4 -24.9°
Reaches altitude 10° 19:43:08 10° 279° (W) 1,826 7.3 -25.3°
Enters shadow 19:46:36 53° 317° (NW) 682 4.3 -25.8°
